Tracking 32579 objects as of 16-Dec-2025
HD Live streaming from Space Station
objects crossing your sky now

DELTA 1 R/B

Track DELTA 1 R/B now!
10-day predictions


NORAD ID: 2661
Int'l Code: 1967-006B
Perigee: 1,346.7 km
Apogee: 1,447.6 km
Inclination: 101.9 °
Period: 113.6 minutes
Semi major axis: 7768 km
RCS: 0.6811 m2 (medium)
Launch date: January 26, 1967
Source: United States (US)
Launch site: AIR FORCE WESTERN TEST RANGE (AFWTR)

Note: This is a ROCKET BODY
Your satellite tracking list
Your tracking list is empty




NASA's NSSDC Master Catalog

Two Line Element Set (TLE):
1 02661U 67006B   25350.12914564 -.00000046  00000-0  72869-5 0  9999
2 02661 101.9468  58.6737 0064896  55.2093  14.4007 12.68019262724959
Source of the keplerian elements: AFSPC